Location: Broadmoor
(37.6867°N, 122.4828°W)
Time: 07:40:38
(UTC+00:00)

COSMOS 2428 - Pass Details

Date: 03 August 2024
Orbit: 842 x 857 km, 70.9° (Epoch: 14 September)

Event Time Altitude Azimuth Distance (km) Brightness Sun altitude
Exits shadow 12:05:20 18° 233° (SW) 1,940 3.9 -13.1°
Maximum altitude 12:09:10 43° 298° (WNW) 1,165 3.2 -12.5°
Drops below altitude 10° 12:14:34 10° 9° (N) 2,479 5.8 -11.6°
Sets 12:17:10 0° 16° (NNE) 3,420 6.7 -11.1°
